Tracking 28805 objects as of 25-Apr-2024
HD Live streaming from Space Station
objects crossing your sky now

DIAMOND RED

Track DIAMOND RED now!
10-day predictions
DIAMOND RED is classified as:


NORAD ID: 42783
Int'l Code: 2017-036U
Perigee: 218.1 km
Apogee: 226.7 km
Inclination: 97.1 °
Period: 88.8 minutes
Semi major axis: 6593 km
RCS: Unknown
Launch date: June 23, 2017
Source: Australia (AUS)
Launch site: SRIHARIKOTA (SRI)

Uplink (MHz):
Downlink (MHz): 401.150
Beacon (MHz):
Mode: 9600bps FSK
Call sign:
Status: Active


Uplink (MHz):
Downlink (MHz): 401.150
Beacon (MHz):
Mode: 9600bps FSK
Call sign:
Status: Active


Uplink (MHz):
Downlink (MHz): 401.150
Beacon (MHz):
Mode: 9600bps FSK
Call sign:
Status: Active

Your satellite tracking list
Your tracking list is empty




NASA's NSSDC Master Catalog

Two Line Element Set (TLE):
1 42783U 17036U   24116.05007817  .03202037  22587-5  15056-2 0  9998
2 42783  97.0775 155.8617 0006537 246.0285 114.0321 16.21577451381498
Source of the keplerian elements: AFSPC